Flag for Moldova Weather past 2 weeks in Tiraspol, Moldova

Now
36 °F

Clear.


Feels Like: 33 °F
Forecast: 35 / 42 °F
Wind: 3 mph from Southeast

Location: Chisinau International Airport

Current Time: Feb 1, 2015 at 1:06:26 AM

Latest Report: Feb 1, 2015 at 12:30 AM


Visibility: 10 mi

Pressure: 29.42 "Hg

Humidity: 75%

Dew point: 28 °F

Location of TiraspolLocation

Historic Weather in Tiraspol — Graph

°F

Tiraspol temperature yesterday

Maximum temperature yesterday: 52 °F (at 3:30 PM)
Minimum temperature yesterday: 37 °F (at 10:30 PM)
Average temperature yesterday: 46 °F

Past Weeks' High & Low Weather Summary

 TemperatureHumidityPressure
High52 °F (Jan 31, 3:30 PM)100% (Jan 23, 7:30 AM)30.30 "Hg (Jan 23, 7:30 AM)
Low27 °F (Jan 29, 8:30 AM)58% (Jan 31, 4:30 PM)29.03 "Hg (Jan 31, 7:00 AM)
Average36 °F87%29.95 "Hg
* Reported Midnight between Jan 16 and Jan 17 — Midnight between Jan 31 and Feb 1, Tiraspol, Weather by CustomWeather, © 2014

Note: Actual official high and low records may vary slightly from our data, if they occured in-between our weather recording intervals... More about our weather records

Advertising

Tiraspol weather history for previous 24 hours

 ConditionsComfort  
Time TempWeatherWind HumidityBarometerVisibility
12:00 AM
Feb 1
37 °FClear.3 mph70%29.45 "Hg10 mi
11:30 PM
Jan 31
37 °FPassing clouds.3 mph70%29.42 "HgN/A
11:00 PM37 °FClear.2 mph70%29.42 "Hg10 mi
10:30 PM37 °FClear.3 mph70%29.39 "Hg10 mi
10:00 PM39 °FClear.6 mph61%29.39 "Hg10 mi
9:30 PM39 °FClear.5 mph65%29.39 "Hg10 mi
9:00 PM39 °FClear.6 mph61%29.36 "Hg10 mi
8:30 PM41 °FClear.7 mph61%29.33 "Hg10 mi
8:00 PM39 °FClear.12 mph65%29.33 "Hg10 mi
7:30 PM41 °FClear.9 mph66%29.33 "Hg10 mi
7:00 PM43 °FClear.9 mph66%29.30 "Hg10 mi
6:30 PM43 °FClear.10 mph66%29.27 "Hg10 mi
6:00 PM45 °FClear.9 mph61%29.24 "Hg10 mi
5:30 PM46 °FClear.9 mph62%29.21 "Hg10 mi
5:00 PM48 °FPassing clouds.15 mph62%29.18 "HgN/A
4:30 PM50 °FPassing clouds.16 mph58%29.18 "HgN/A
4:00 PM50 °FPassing clouds.13 mph67%29.15 "HgN/A
3:30 PM52 °FPassing clouds.17 mph62%29.15 "HgN/A
3:00 PM50 °FPassing clouds.18 mph71%29.12 "HgN/A
2:30 PM48 °FPassing clouds.16 mph71%29.09 "HgN/A
2:00 PM50 °FScattered clouds.18 mph67%29.09 "HgN/A
1:30 PM50 °FScattered clouds.18 mph76%29.06 "HgN/A
1:00 PM48 °FScattered clouds.13 mph82%29.03 "HgN/A
12:30 PM48 °FBroken clouds.12 mph82%29.03 "HgN/A
12:00 PM48 °FSprinkles. More clouds than sun.16 mph87%29.06 "HgN/A
11:30 AM48 °FSprinkles. More clouds than sun.16 mph87%29.06 "HgN/A
11:00 AM48 °FSprinkles. Mostly cloudy.16 mph87%29.06 "HgN/A
10:30 AM48 °FSprinkles. More clouds than sun.16 mph82%29.06 "HgN/A
10:00 AM48 °FSprinkles. Mostly cloudy.17 mph82%29.06 "HgN/A
9:30 AM48 °FSprinkles. Broken clouds.20 mph76%29.06 "HgN/A
9:00 AM48 °FScattered clouds.26 mph76%29.03 "HgN/A
8:30 AM48 °FScattered clouds.28 mph76%29.03 "HgN/A
8:00 AM48 °FScattered clouds.25 mph76%29.03 "HgN/A
7:30 AM48 °FPassing clouds.26 mph76%29.03 "HgN/A
7:00 AM48 °FPassing clouds.25 mph76%29.03 "HgN/A
6:30 AM48 °FPassing clouds.28 mph76%29.06 "HgN/A
6:00 AM48 °FPassing clouds.28 mph76%29.06 "HgN/A
5:00 AM48 °FPassing clouds.24 mph76%29.09 "HgN/A
4:30 AM48 °FPassing clouds.23 mph76%29.09 "HgN/A
4:00 AM48 °FClear.22 mph76%29.09 "Hg10 mi
3:30 AM48 °FClear.25 mph76%29.12 "Hg10 mi
3:00 AM48 °FClear.25 mph76%29.12 "Hg10 mi
2:30 AM48 °FClear.26 mph76%29.15 "Hg10 mi
2:00 AM46 °FClear.21 mph82%29.15 "Hg10 mi
1:30 AM46 °FClear.16 mph82%29.18 "Hg10 mi
1:00 AM46 °FClear.16 mph82%29.21 "Hg10 mi
Weather by CustomWeather, © 2014

See weather overviewHow to use our weather pages